Location: Gloden
(48.4833°N, 15.3167°E)
Time: 13:06:18
(UTC+00:00)

ISS - Visible Passes

Search period start: 08 March 2021 00:00
Search period end: 18 March 2021 00:00
Orbit: 417 x 422 km, 51.6° (Epoch: 07 March)

Date Brightness Start Highest point End Pass type
(mag) Time Alt. Az. Time Alt. Az. Time Alt. Az.
08 Mar -3.0 03:13:11 52° NE 03:13:11 52° NE 03:16:03 10° E visible
08 Mar -3.1 04:46:17 10° WNW 04:49:27 39° SSW 04:52:36 10° SE visible
09 Mar -0.8 02:27:42 16° E 02:27:42 16° E 02:28:27 10° E visible
09 Mar -3.7 04:00:40 31° W 04:02:02 58° SSW 04:05:20 10° SE visible
10 Mar -3.2 03:15:16 53° SE 03:15:16 53° SE 03:17:56 10° ESE visible
10 Mar -2.0 04:48:38 10° W 04:50:59 18° SW 04:53:19 10° S visible
11 Mar -0.7 02:30:00 13° ESE 02:30:00 13° ESE 02:30:25 10° ESE visible
11 Mar -2.6 04:03:00 24° WSW 04:03:39 26° SW 04:06:31 10° SSE visible
12 Mar -2.0 03:17:52 23° SSE 03:17:52 23° SSE 03:19:25 10° SE visible
13 Mar -1.4 04:05:56 11° SSW 04:05:56 11° SSW 04:06:15 10° SSW visible
17 Mar -1.1 19:14:18 10° SSW 19:14:33 11° SSW 19:14:33 11° SSW visible
